| time (UTC) | temp F | wind direction | speed knots | gust knots | rain 1hr in | rain 24hr in | rain mn in | humidity % | barometer mb |
| 20260504050105 | 53 | 250 | 4.3 | 9.6 | 0.00 | 0.00 | 0.00 | 57 | 1009.3 |
| 20260504044537 | 53 | 256 | 4.3 | 8.7 | 0.00 | 0.00 | 0.00 | 57 | 1009.3 |
| 20260504043035 | 53 | 191 | 3.5 | 8.7 | 0.00 | 0.00 | 0.00 | 58 | 1009.4 |
| 20260504041535 | 52 | 241 | 3.5 | 8.7 | 0.00 | 0.00 | 0.00 | 60 | 1009.4 |
| 20260504040032 | 52 | 206 | 3.5 | 7.8 | 0.00 | 0.00 | 0.00 | 61 | 1009.5 |
| 20260504034540 | 51 | 236 | 3.5 | 7.8 | 0.00 | 0.00 | 0.00 | 63 | 1009.6 |
| 20260504033031 | 51 | 235 | 1.7 | 5.2 | 0.00 | 0.00 | 0.00 | 66 | 1009.9 |
| 20260504031528 | 51 | 277 | 2.6 | 6.1 | 0.00 | 0.00 | 0.00 | 67 | 1010.2 |
| 20260504030037 | 50 | 240 | 1.7 | 4.3 | 0.00 | 0.00 | 0.00 | 70 | 1010.2 |
| 20260504024527 | 50 | 236 | 1.7 | 6.1 | 0.00 | 0.00 | 0.00 | 72 | 1010.2 |
| 20260504023026 | 49 | 246 | 2.6 | 5.2 | 0.00 | 0.00 | 0.00 | 73 | 1010.4 |
| 20260504021525 | 49 | 244 | 1.7 | 6.1 | 0.00 | 0.00 | 0.00 | 74 | 1010.7 |
| 20260504020028 | 49 | 252 | 2.6 | 8.7 | 0.00 | 0.00 | 0.00 | 75 | 1010.8 |
| 20260504014525 | 50 | 203 | 4.3 | 13.9 | 0.00 | 0.00 | 0.00 | 74 | 1011.0 |
| 20260504013026 | 52 | 328 | 7.8 | 14.8 | 0.00 | 0.00 | 0.00 | 65 | 1011.1 |
| 20260504011523 | 53 | 279 | 6.1 | 16.5 | 0.00 | 0.00 | 0.00 | 60 | 1010.7 |
| 20260504010021 | 53 | 272 | 6.1 | 17.4 | 0.00 | 0.00 | 0.00 | 57 | 1010.4 |
| 20260504004523 | 54 | 259 | 12.2 | 21.7 | 0.00 | 0.00 | 0.00 | 54 | 1010.3 |
| 20260504003019 | 54 | 242 | 8.7 | 16.5 | 0.00 | 0.00 | 0.00 | 52 | 1010.1 |
| 20260504001518 | 54 | 272 | 7.8 | 14.8 | 0.00 | 0.00 | 0.00 | 50 | 1010.0 |
| 20260504000017 | 54 | 246 | 3.5 | 7.0 | 0.00 | 0.00 | 0.00 | 50 | 1009.7 |
| 20260503234522 | 54 | 256 | 6.1 | 12.2 | 0.00 | 0.00 | 0.00 | 50 | 1009.6 |
| 20260503233015 | 53 | 226 | 2.6 | 15.6 | 0.00 | 0.00 | 0.00 | 55 | 1009.8 |
| 20260503231518 | 53 | 271 | 6.1 | 14.8 | 0.00 | 0.00 | 0.00 | 52 | 1010.4 |
| 20260503230014 | 54 | 261 | 7.8 | 13.9 | 0.00 | 0.00 | 0.00 | 51 | 1010.6 |
| 20260503224514 | 54 | 290 | 4.3 | 8.7 | 0.00 | 0.00 | 0.00 | 50 | 1010.3 |
| 20260503223021 | 54 | 217 | 2.6 | 9.6 | 0.00 | 0.00 | 0.00 | 50 | 1010.1 |
| 20260503221511 | 55 | 270 | 3.5 | 8.7 | 0.00 | 0.00 | 0.00 | 49 | 1010.0 |
| 20260503220011 | 55 | 243 | 6.1 | 9.6 | 0.00 | 0.00 | 0.00 | 49 | 1009.9 |
| 20260503214504 | 54 | 278 | 5.2 | 11.3 | 0.00 | 0.00 | 0.00 | 50 | 1010.2 |
| 20260503213133 | 54 | 259 | 6.1 | 10.4 | 0.00 | 0.00 | 0.00 | 50 | 1010.2 |
| 20260503211620 | 53 | 266 | 6.1 | 11.3 | 0.00 | 0.00 | 0.00 | 48 | 1010.1 |
| 20260503210056 | 53 | 248 | 4.3 | 10.4 | 0.00 | 0.00 | 0.00 | 50 | 1010.2 |
| 20260503204604 | 53 | 269 | 5.2 | 11.3 | 0.00 | 0.00 | 0.00 | 50 | 1010.3 |
| 20260503203051 | 53 | 252 | 4.3 | 13.9 | 0.00 | 0.00 | 0.00 | 54 | 1010.7 |
| 20260503201550 | 53 | 267 | 4.3 | 11.3 | 0.00 | 0.00 | 0.00 | 54 | 1010.7 |
| 20260503200050 | 53 | 293 | 7.0 | 12.2 | 0.00 | 0.00 | 0.00 | 53 | 1011.1 |
| 20260503194547 | 52 | 299 | 4.3 | 10.4 | 0.00 | 0.00 | 0.00 | 54 | 1011.2 |
| 20260503193046 | 52 | 288 | 6.1 | 12.2 | 0.00 | 0.00 | 0.00 | 53 | 1011.2 |
| 20260503191600 | 52 | 280 | 5.2 | 10.4 | 0.00 | 0.00 | 0.00 | 52 | 1011.4 |
| 20260503190047 | 53 | 266 | 3.5 | 11.3 | 0.00 | 0.00 | 0.00 | 50 | 1011.5 |
| 20260503184600 | 53 | 289 | 4.3 | 11.3 | 0.00 | 0.00 | 0.00 | 51 | 1011.6 |
| 20260503183046 | 52 | 246 | 7.0 | 13.9 | 0.00 | 0.00 | 0.00 | 48 | 1011.7 |
| 20260503181540 | 53 | 261 | 6.1 | 13.0 | 0.00 | 0.00 | 0.00 | 49 | 1012.0 |
| 20260503180038 | 53 | 272 | 7.8 | 13.9 | 0.00 | 0.00 | 0.00 | 46 | 1012.1 |
| 20260503174545 | 52 | 203 | 4.3 | 13.9 | 0.00 | 0.00 | 0.00 | 47 | 1012.2 |
| 20260503173034 | 52 | 229 | 5.2 | 13.0 | 0.00 | 0.00 | 0.00 | 46 | 1012.4 |
| 20260503171534 | 50 | 314 | 7.0 | 13.9 | 0.00 | 0.00 | 0.00 | 46 | 1012.6 |
| 20260503081515 | 37 | 265 | 0.0 | 1.7 | 0.00 | 0.00 | 0.00 | 86 | 1014.0 |